Location: RyutenAO
(34.8939°N, 134.0022°E)
Time: 01:18:19
(UTC+09:00)

XW-2B - Visible Passes

Search period start: 21 March 2023 00:00
Search period end: 31 March 2023 00:00
Orbit: 480 x 500 km, 97.5° (Epoch: 20 March)

Date Brightness Start Highest point End Pass type
(mag) Time Alt. Az. Time Alt. Az. Time Alt. Az.
21 Mar ? 05:26:35 10° ENE 05:28:44 15° E 05:30:53 10° SE visible
22 Mar ? 18:45:29 10° WSW 18:46:29 11° W 18:47:28 10° WNW visible
25 Mar ? 05:29:02 10° NE 05:31:22 16° E 05:33:41 10° SE visible
26 Mar ? 18:48:36 10° W 18:48:52 10° W 18:49:08 10° W visible
29 Mar ? 05:30:56 10° NE 05:33:23 17° E 05:35:50 10° SE visible
